Simultaneous Nadir Overpasses (SNOs) Predictions

Prediction of SNOs between GOES-14 and NOAA-20 Satellite Orbit:

Table of predicted SNOs for the next 14.0 days since TLE Epoch: 9/2/2023
Index Date Time (GOES-14) GOES-14 Lat,Lon NOAA-20 Lat,Lon Distance(km) Time Diff (sec)
1 09/02/2023 20:46:58 -0.42,-108.53 -0.90,-110.58 233.98 80
2 09/03/2023 20:30:53 -0.42,-108.53 0.16,-106.05 283.01 80
3 09/05/2023 08:50:25 0.41,-108.62 1.00,-111.33 308.09 55
4 09/06/2023 08:31:15 0.42,-108.62 -0.00,-106.79 208.39 80
5 09/07/2023 20:53:10 -0.40,-108.53 -1.18,-112.09 406.13 80
6 09/08/2023 20:37:05 -0.40,-108.53 -0.17,-107.56 110.57 80
7 09/10/2023 08:56:12 0.38,-108.62 1.32,-112.83 480.21 80
8 09/11/2023 08:40:07 0.39,-108.62 0.31,-108.30 36.35 80
9 09/13/2023 20:40:36 -0.37,-108.53 -0.47,-109.07 61.43 80
10 09/14/2023 20:24:31 -0.38,-108.53 0.54,-104.54 455.77 80
